星链-3759 (STARLINK-3759 )

导读 | 豆包AI

STARLINK-3759是美国太空探索技术公司Starlink星链互联网卫星星座的一员,于2022年4月21日发射入轨。星链星座旨在为全球提供高速低延迟卫星互联网服务,该卫星承担着扩展星座覆盖范围、提升全球网络接入能力的任务,服务通信、航海航空等多个领域,是美国星链组网进程中的重要组成单元。

Basic Information
目录编号:
52299
目录名称:
STARLINK-3759
国际标识:
2022-041AQ
轨道中心:
EARTH
卫星名称:
星链-3759
卫星全名:
星链-3759 (STARLINK-3759 )
卫星状态:
已陨落 最后检测时间 2025-01-21
发射日期:
2022-04-21 UTC
国别 :
美国 (US)
星等 :
--
Orbit Information
数据来源 国际轨道数据
星历时间: 2025-01-22T09:33:20+0800
轨道信息已过期463天
半长轴: 6531.225km
偏心率: 0.0001786
轨道倾角: 53.197°
近地点辐角 13.612°
升交点赤经 124.600°
平近点角 110.183°
近地点: 151.923km
远地点: 154.257km
周期: 87.549分钟
每日圈数: 16.447914
Detailed Information
固有亮度:
5
最大亮度:
2.5
卫星平台:
Starlink v1.5
覆盖范围:
全球
运营商:
太空探索技术公司
运营商所在国:
美国
制造商(研发单位):
太空探索技术公司
制造商所在国:
美国
使用方式:
暂无
Satellite Introduction
星链(Starlink)计划是由太空探索技术公司(SpaceX)提出的一个巨型低轨卫星互联网星座项目,计划在2019年至2024年间在太空搭建由约1.2万颗卫星组成的“星链”网络,其中1584颗将部署在地球上空550千米处的近地轨道,并从2020年开始工作。该卫星仍在工作。